TimeAEST,TemperatureF,Dew PointF,Humidity,Sea Level PressureIn,VisibilityMPH,Wind Direction,Wind SpeedMPH,Gust SpeedMPH,PrecipitationIn,Events,Conditions,WindDirDegrees,DateUTC
12:00 AM,72,63,66,30.08,,South,10.4,,,,,170,2012-10-01 14:00:00
12:00 AM,73.4,62.6,69,30.06,6.2,South,10.4,-,N/A,,Unknown,170,2012-10-01 14:00:00
12:30 AM,73.4,62.6,69,30.06,6.2,South,12.7,-,N/A,,Partly Cloudy,170,2012-10-01 14:30:00
1:00 AM,72,63,67,30.07,,SSE,11.5,,,,,160,2012-10-01 15:00:00
1:00 AM,71.6,62.6,73,30.06,6.2,SSE,11.5,-,N/A,,Partly Cloudy,160,2012-10-01 15:00:00
1:30 AM,71.6,64.4,78,30.04,6.2,South,10.4,-,N/A,,Partly Cloudy,170,2012-10-01 15:30:00
2:00 AM,71.6,64.4,78,30.04,6.2,SSE,10.4,-,N/A,,Partly Cloudy,160,2012-10-01 16:00:00
2:30 AM,73.4,64.4,73,30.04,6.2,SSE,10.4,-,N/A,,Scattered Clouds,160,2012-10-01 16:30:00
3:00 AM,72,64,69,30.03,,South,10.4,,,,,180,2012-10-01 17:00:00
3:00 AM,73.4,64.4,73,30.01,6.2,South,10.4,-,N/A,,Scattered Clouds,170,2012-10-01 17:00:00
3:30 AM,71.6,64.4,78,30.01,6.2,South,9.2,-,N/A,,Scattered Clouds,170,2012-10-01 17:30:00
4:00 AM,72,64,69,30.03,,SSE,10.4,,,,,160,2012-10-01 18:00:00
4:00 AM,71.6,64.4,78,30.01,6.2,SSE,10.4,-,N/A,,Scattered Clouds,160,2012-10-01 18:00:00
4:30 AM,71.6,64.4,78,30.04,6.2,SSE,11.5,-,N/A,,Scattered Clouds,160,2012-10-01 18:30:00
5:00 AM,71.6,64.4,78,30.04,6.2,South,11.5,-,N/A,,Partly Cloudy,170,2012-10-01 19:00:00
5:30 AM,71.6,64.4,78,30.04,6.2,South,9.2,-,N/A,,Partly Cloudy,170,2012-10-01 19:30:00
6:00 AM,72,64,69,30.06,19,SSE,11.5,,,,Partly Cloudy,160,2012-10-01 20:00:00
6:00 AM,71.6,64.4,78,30.04,6.2,SSE,11.5,-,N/A,,Scattered Clouds,160,2012-10-01 20:00:00
6:30 AM,73.4,64.4,73,30.06,6.2,SSE,12.7,-,N/A,,Partly Cloudy,160,2012-10-01 20:30:00
7:00 AM,74,64,62,30.08,,South,13.8,,,,,170,2012-10-01 21:00:00
7:00 AM,73.4,64.4,73,30.06,6.2,South,13.8,-,N/A,,Partly Cloudy,170,2012-10-01 21:00:00
7:30 AM,75.2,62.6,65,30.06,6.2,SSE,16.1,-,N/A,,Partly Cloudy,160,2012-10-01 21:30:00
8:00 AM,78.8,62.6,57,30.09,6.2,SSE,17.3,-,N/A,,Partly Cloudy,160,2012-10-01 22:00:00
8:30 AM,78.8,62.6,57,30.09,6.2,SSE,15.0,-,N/A,,Partly Cloudy,160,2012-10-01 22:30:00
9:00 AM,81,61,41,30.11,19,SE,21.9,,,,Partly Cloudy,140,2012-10-01 23:00:00
9:00 AM,80.6,60.8,51,30.09,6.2,SE,21.9,-,N/A,,Partly Cloudy,130,2012-10-01 23:00:00
9:38 AM,84.2,62.6,48,30.09,6.2,SE,20.7,32.2,N/A,,Partly Cloudy,140,2012-10-01 23:38:00
10:00 AM,83,61,37,30.11,,SE,24.2,,,,,130,2012-10-02 00:00:00
10:00 AM,82.4,60.8,48,30.09,6.2,SE,24.2,-,N/A,,Partly Cloudy,130,2012-10-02 00:00:00
10:30 AM,84.2,60.8,45,30.09,6.2,SE,23.0,-,N/A,,Partly Cloudy,130,2012-10-02 00:30:00
11:00 AM,84.2,59.0,42,30.09,6.2,SE,21.9,-,N/A,,Partly Cloudy,130,2012-10-02 01:00:00
11:30 AM,86.0,60.8,43,30.06,6.2,SE,21.9,-,N/A,,Partly Cloudy,130,2012-10-02 01:30:00
12:00 PM,85,58,30,30.07,19,SE,24.2,,,,Partly Cloudy,130,2012-10-02 02:00:00
12:00 PM,84.2,59.0,42,30.06,6.2,SE,24.2,-,N/A,,Partly Cloudy,130,2012-10-02 02:00:00
12:30 PM,86.0,59.0,40,30.04,6.2,SE,25.3,-,N/A,,Unknown,130,2012-10-02 02:30:00
1:00 PM,84,58,32,30.04,,SE,26.5,,,,,130,2012-10-02 03:00:00
1:00 PM,84.2,59.0,42,30.04,6.2,SE,26.5,-,N/A,,Partly Cloudy,130,2012-10-02 03:00:00
1:30 PM,86.0,57.2,37,30.01,6.2,SE,24.2,-,N/A,,Partly Cloudy,130,2012-10-02 03:30:00
2:00 PM,86.0,55.4,35,30.01,6.2,SE,21.9,-,N/A,,Scattered Clouds,130,2012-10-02 04:00:00
2:30 PM,86.0,57.2,37,30.01,6.2,SE,23.0,-,N/A,,Scattered Clouds,130,2012-10-02 04:30:00
3:00 PM,84.2,60.8,45,30.01,6.2,SE,21.9,-,N/A,,Scattered Clouds,130,2012-10-02 05:00:00
4:00 PM,82,62,40,30.02,,ESE,24.2,,,,,120,2012-10-02 06:00:00
4:00 PM,82.4,62.6,51,30.01,6.2,ESE,24.2,-,N/A,,Partly Cloudy,120,2012-10-02 06:00:00
4:30 PM,78.8,62.6,57,30.01,6.2,SE,23.0,-,N/A,,Partly Cloudy,130,2012-10-02 06:30:00
5:00 PM,80.6,60.8,51,30.01,6.2,SE,23.0,-,N/A,,Partly Cloudy,130,2012-10-02 07:00:00
5:30 PM,78.8,60.8,54,30.04,6.2,SE,20.7,-,N/A,,Partly Cloudy,130,2012-10-02 07:30:00
6:00 PM,78,62,47,30.04,,SSE,18.4,,,,,160,2012-10-02 08:00:00
6:00 PM,78.8,60.8,54,30.04,6.2,SSE,18.4,-,N/A,,Partly Cloudy,150,2012-10-02 08:00:00
6:30 PM,77.0,62.6,61,30.04,6.2,SSE,19.6,-,N/A,,Partly Cloudy,160,2012-10-02 08:30:00
6:40 PM,77.0,62.6,61,30.04,6.2,SSE,18.4,29.9,N/A,,Partly Cloudy,150,2012-10-02 08:40:00
7:00 PM,76,63,55,30.07,,SSE,16.1,,,,,160,2012-10-02 09:00:00
7:00 PM,75.2,62.6,65,30.06,6.2,SSE,16.1,-,N/A,,Partly Cloudy,160,2012-10-02 09:00:00
7:30 PM,75.2,62.6,65,30.06,6.2,SSE,16.1,-,N/A,,Partly Cloudy,160,2012-10-02 09:30:00
8:00 PM,75.2,64.4,69,30.06,6.2,SSE,16.1,-,N/A,,Partly Cloudy,160,2012-10-02 10:00:00
8:30 PM,75.2,64.4,69,30.06,6.2,SSE,15.0,-,N/A,,Scattered Clouds,160,2012-10-02 10:30:00
9:00 PM,75,65,63,30.10,,SSE,13.8,,,,,150,2012-10-02 11:00:00
9:00 PM,75.2,64.4,69,30.09,6.2,SSE,13.8,-,N/A,,Scattered Clouds,150,2012-10-02 11:00:00
9:30 PM,75.2,64.4,69,30.09,6.2,SSE,13.8,-,N/A,,Scattered Clouds,160,2012-10-02 11:30:00
10:00 PM,74,65,66,30.11,,SSE,13.8,,,,,160,2012-10-02 12:00:00
10:00 PM,75.2,64.4,69,30.09,6.2,SSE,13.8,-,N/A,,Scattered Clouds,160,2012-10-02 12:00:00
10:30 PM,75.2,64.4,69,30.09,6.2,SSE,12.7,-,N/A,,Scattered Clouds,150,2012-10-02 12:30:00
11:00 PM,73.4,66.2,78,30.06,6.2,SSE,12.7,-,N/A,Rain,Light Rain Showers,160,2012-10-02 13:00:00
11:30 PM,73.4,66.2,78,30.06,6.2,South,10.4,-,N/A,Rain,Light Rain Showers,170,2012-10-02 13:30:00